Vorticity
18 23 7 14 6 3 5 -5 -1 -16 -2 -20 -15 -42 15 6 6 3 -1 2 -3 -1 6 5 5 3 3 8 8 3 8 9 10 11 14 16 14 15 7 11 17 26 -3
2 -11 -4 1 7 1 -3 -1 -7 -1 2 3 2 15 8 5 5 3 0 4 -0 6 -12 5 6 0 -0 16 8 6 8 10 13 17 13 11 11 17 8 7 2 5 13
39 26 -32 -25 38 2 -8 4 8 -13 53 6 11 10 3 1 1 -1 3 -2 -3 -3 2 1 5 6 16 13 6 7 15 14 11 13 13 11 10 10 8 6 6 5 3
10 -24 65 3 -8 16 7 -6 58 17 9 7 -5 2 -1 4 -6 -4 5 7 8 -3 16 6 5 8 10 4 4 12 10 11 12 12 11 11 11 11 10 5 6 11 7
21 34 -16 28 52 59 53 76 77 -20 25 -13 14 12 5 -8 19 22 11 2 23 25 18 7 11 13 6 13 12 11 10 9 9 9 6 7 10 13 9 15 5 5 11
11 5 14 -11 12 17 -22 26 46 38 -27 19 20 6 6 24 12 32 4 13 -5 6 7 1 14 10 6 -4 1 7 12 9 8 8 9 8 7 9 7 7 8 7 4
27 37 3 25 41 7 17 -10 -14 -10 10 9 -19 10 -2 4 29 -11 0 13 13 25 4 8 5 6 6 3 7 7 9 8 9 6 6 8 10 9 6 6 6 7 4
20 -18 1 -13 19 11 17 21 4 16 12 30 -4 16 8 8 13 17 12 24 14 14 15 12 1 7 4 10 6 9 11 11 10 11 11 7 6 5 6 4 4 1 0
7 22 5 21 -9 -2 5 10 17 -12 11 12 7 14 20 19 30 22 18 -0 -3 1 11 5 6 5 6 9 8 6 7 9 9 9 8 8 7 6 6 6 5 2 2
4 7 -4 23 20 12 -13 4 -16 8 -7 20 -5 20 -0 14 14 12 11 11 20 7 10 12 12 13 11 11 10 9 8 6 6 7 5 2 1 2 2 3 3 4 4
12 3 12 11 7 0 11 2 29 -14 -0 11 16 4 10 18 2 2 6 8 10 14 11 8 7 6 5 6 3 1 2 2 3 3 4 3 3 5 7 9 9 7 7
8 13 8 5 -18 4 13 3 5 23 21 19 16 6 4 2 7 12 14 11 4 1 7 4 4 4 5 5 5 4 5 6 6 5 5 8 10 12 15 16 16 16 16
42 4 11 8 7 12 6 29 8 -2 9 16 10 12 16 11 6 8 9 2 5 2 5 7 5 2 1 5 8 10 12 16 17 17 16 15 15 14 12 12 11 11 10
-2 14 -8 4 7 34 17 -4 2 2 7 5 6 3 8 11 5 3 4 5 8 4 2 3 6 8 12 13 14 12 10 10 11 11 14 13 15 17 15 14 13 13 12
21 3 -6 7 31 11 7 6 3 10 9 8 10 7 3 4 6 6 5 3 5 9 8 10 14 10 8 9 8 10 12 13 16 18 22 25 26 29 29 25 22 20 19
3 8 -1 13 8 6 11 15 15 7 7 6 4 5 4 4 8 6 8 8 9 10 8 7 7 7 9 11 15 18 25 31 38 44 44 43 43 43 41 38 36 35 36
28 17 13 16 12 13 12 4 4 6 5 7 4 6 7 4 8 9 9 7 4 6 4 9 11 15 18 22 32 42 43 40 39 36 35 35 34 32 30 31 31 31 31
6 11 7 7 7 5 7 5 6 9 1 6 6 5 7 5 4 2 3 12 14 16 14 17 19 26 35 40 38 35 34 33 31 31 31 31 31 31 27 28 30 29 29
5 7 11 5 8 6 3 8 5 5 7 8 8 7 8 9 13 14 12 12 12 16 19 26 32 39 34 31 32 33 29 27 30 29 29 28 27 25 24 23 22 22 21
10 6 7 5 4 7 7 6 9 6 7 7 7 9 12 13 11 11 12 13 17 21 32 39 29 27 27 30 31 26 28 25 27 26 23 18 16 18 19 21 21 23 23
6 5 5 6 10 9 9 6 6 6 4 9 13 11 9 10 13 12 14 16 27 36 32 25 23 25 30 27 26 26 23 24 19 14 12 12 12 18 23 15 12 16 20
4 6 8 8 7 5 5 7 8 13 13 9 10 12 12 11 13 13 19 34 31 28 23 22 24 31 26 26 23 19 15 10 8 8 10 17 28 8 11 15 15 16 16
4 7 7 6 7 11 11 9 7 9 10 12 11 12 12 12 14 24 34 32 24 21 21 25 28 28 25 25 17 13 10 8 2 9 29 20 12 7 20 9 22 18 15
9 7 9 7 4 5 11 10 9 11 12 11 9 10 13 16 28 34 28 19 21 21 25 28 31 25 26 19 13 12 10 1 6 21 23 9 10 10 12 23 23 13 14
7 7 5 7 8 7 9 11 9 9 10 9 11 13 15 29 40 26 12 21 20 23 26 28 30 25 26 14 8 13 9 0 7 19 19 9 9 19 5 12 15 17 14
2 3 7 8 10 11 10 9 7 9 11 11 11 14 25 42 29 7 21 19 20 23 23 27 27 30 29 12 9 11 7 -3 10 13 18 12 10 15 21 2 20 13 15
Height
5698 5700 5703 5708 5710 5709 5709 5709 5708 5706 5700 5702 5705 5703 5706 5706 5711 5713 5710 5708 5708 5707 5706 5704 5699 5695 5692 5687 5683 5679 5675 5670 5666 5662 5658 5657 5655 5653 5651 5647 5645 5644 5643
5683 5683 5688 5690 5692 5695 5698 5697 5697 5694 5692 5691 5691 5689 5693 5698 5701 5701 5697 5696 5695 5694 5693 5690 5686 5682 5679 5674 5670 5666 5662 5658 5654 5650 5646 5644 5643 5642 5640 5639 5637 5635 5634
5667 5671 5670 5670 5678 5683 5683 5684 5683 5681 5678 5680 5678 5679 5684 5687 5687 5685 5684 5683 5682 5682 5680 5676 5672 5669 5665 5661 5658 5654 5649 5645 5642 5639 5636 5633 5631 5629 5629 5628 5628 5626 5625
5655 5655 5660 5663 5661 5660 5667 5667 5668 5671 5667 5667 5667 5668 5672 5674 5673 5673 5672 5670 5669 5668 5665 5661 5659 5656 5653 5648 5645 5640 5636 5631 5629 5625 5623 5621 5619 5617 5616 5616 5615 5615 5614
5644 5646 5646 5650 5653 5653 5652 5652 5651 5655 5656 5659 5657 5656 5659 5661 5659 5657 5656 5656 5653 5652 5650 5647 5646 5641 5639 5634 5630 5626 5621 5617 5614 5612 5609 5607 5605 5603 5602 5601 5601 5600 5599
5632 5636 5638 5640 5643 5642 5641 5641 5641 5644 5644 5647 5649 5650 5650 5649 5646 5644 5644 5638 5639 5638 5635 5633 5630 5627 5624 5619 5614 5610 5608 5603 5598 5596 5595 5592 5589 5588 5586 5584 5584 5584 5584
5625 5627 5627 5628 5628 5627 5631 5633 5634 5636 5636 5637 5636 5636 5636 5635 5632 5630 5628 5626 5625 5622 5619 5617 5614 5611 5608 5603 5598 5594 5591 5587 5584 5581 5578 5575 5573 5570 5570 5568 5566 5565 5565
5614 5615 5616 5620 5619 5620 5621 5625 5628 5628 5628 5627 5624 5621 5621 5619 5617 5615 5613 5611 5607 5606 5603 5600 5597 5595 5590 5586 5581 5576 5572 5568 5565 5563 5559 5557 5555 5551 5550 5548 5546 5545 5544
5604 5605 5609 5610 5611 5611 5611 5613 5614 5612 5613 5613 5612 5608 5606 5604 5603 5599 5596 5595 5593 5589 5587 5583 5579 5575 5570 5565 5562 5557 5553 5547 5544 5542 5540 5537 5534 5531 5527 5526 5523 5522 5522
5595 5597 5598 5601 5598 5600 5601 5602 5602 5603 5602 5601 5599 5596 5594 5591 5588 5586 5583 5582 5578 5573 5569 5565 5560 5555 5550 5545 5541 5537 5535 5530 5524 5520 5517 5514 5512 5509 5505 5502 5500 5497 5495
5587 5590 5592 5591 5592 5592 5594 5593 5592 5590 5590 5588 5585 5583 5580 5578 5577 5573 5570 5567 5564 5559 5553 5548 5542 5536 5532 5526 5520 5514 5510 5506 5502 5495 5491 5487 5482 5479 5476 5473 5472 5471 5470
5578 5581 5583 5583 5584 5583 5584 5583 5581 5579 5578 5575 5573 5571 5568 5566 5564 5561 5556 5551 5547 5543 5538 5531 5524 5517 5510 5503 5496 5489 5483 5477 5472 5468 5463 5458 5453 5448 5445 5443 5441 5440 5441
5568 5570 5574 5575 5574 5574 5574 5573 5571 5569 5567 5565 5563 5561 5557 5554 5551 5547 5542 5537 5531 5524 5516 5509 5502 5494 5486 5477 5467 5458 5450 5443 5438 5434 5429 5425 5420 5416 5413 5412 5412 5412 5413
5559 5563 5565 5566 5567 5566 5566 5565 5564 5562 5558 5556 5553 5550 5547 5543 5538 5533 5526 5519 5511 5503 5495 5486 5476 5468 5458 5448 5437 5426 5418 5411 5404 5398 5393 5387 5384 5380 5378 5376 5378 5379 5383
5553 5556 5559 5560 5560 5560 5559 5557 5555 5553 5550 5547 5545 5541 5535 5529 5523 5515 5508 5501 5494 5485 5476 5464 5452 5440 5428 5416 5404 5391 5381 5372 5364 5356 5351 5347 5343 5341 5340 5340 5342 5345 5352
5547 5550 5553 5553 5552 5552 5550 5550 5547 5544 5542 5539 5534 5528 5522 5515 5507 5499 5490 5480 5469 5458 5446 5435 5422 5410 5397 5384 5371 5356 5342 5332 5324 5318 5312 5308 5307 5306 5307 5308 5311 5316 5323
5540 5544 5545 5546 5545 5545 5544 5542 5540 5537 5532 5527 5522 5514 5506 5498 5488 5477 5465 5455 5444 5432 5420 5406 5391 5377 5362 5349 5335 5323 5312 5304 5296 5291 5287 5284 5283 5284 5286 5288 5291 5297 5304
5535 5538 5539 5540 5540 5539 5537 5535 5532 5527 5521 5513 5506 5497 5488 5478 5467 5456 5443 5429 5416 5404 5392 5377 5363 5347 5331 5318 5309 5301 5293 5286 5281 5277 5273 5271 5271 5272 5274 5278 5282 5287 5293
5532 5534 5535 5534 5533 5532 5529 5525 5520 5514 5507 5499 5489 5480 5468 5458 5448 5437 5424 5410 5396 5382 5368 5350 5333 5321 5311 5302 5294 5287 5282 5277 5273 5270 5268 5267 5268 5269 5271 5274 5278 5283 5288
5529 5530 5529 5528 5526 5524 5520 5516 5509 5501 5491 5484 5476 5465 5455 5445 5432 5418 5405 5391 5374 5356 5340 5326 5316 5306 5297 5290 5284 5280 5277 5274 5272 5270 5269 5269 5270 5271 5273 5275 5278 5282 5287
5526 5525 5524 5523 5520 5517 5511 5502 5495 5490 5483 5473 5463 5453 5441 5428 5415 5400 5385 5366 5349 5334 5322 5312 5304 5295 5289 5284 5281 5279 5277 5276 5275 5274 5273 5273 5273 5273 5275 5278 5281 5284 5287
5521 5522 5520 5516 5510 5504 5499 5495 5488 5480 5471 5459 5448 5438 5425 5411 5394 5376 5361 5345 5331 5321 5311 5302 5295 5289 5285 5282 5280 5280 5279 5279 5279 5278 5277 5276 5276 5277 5279 5281 5283 5286 5289
5518 5515 5510 5507 5505 5501 5495 5485 5476 5467 5457 5449 5436 5423 5407 5391 5375 5360 5345 5332 5322 5311 5302 5295 5288 5284 5282 5281 5282 5282 5282 5283 5283 5282 5280 5280 5281 5282 5283 5285 5287 5290 5293
5512 5509 5507 5502 5498 5491 5482 5475 5468 5460 5450 5435 5420 5407 5395 5378 5362 5347 5334 5324 5313 5304 5296 5289 5284 5281 5281 5281 5283 5284 5285 5286 5286 5285 5285 5285 5286 5287 5288 5289 5291 5294 5297
5508 5504 5500 5496 5490 5481 5475 5469 5461 5449 5435 5423 5413 5399 5383 5366 5351 5338 5328 5318 5309 5300 5292 5286 5282 5280 5281 5283 5285 5287 5288 5289 5290 5289 5290 5290 5291 5292 5293 5295 5297 5298 5301
5502 5499 5495 5489 5484 5479 5472 5462 5450 5439 5429 5418 5405 5390 5373 5357 5345 5335 5326 5316 5307 5298 5291 5286 5282 5281 5282 5285 5288 5290 5292 5294 5294 5294 5294 5295 5296 5296 5297 5299 5301 5303 5305